Location: Titusville
(28.6120°N, 80.8080°W)
Time: 04:40:33
(UTC-05:00)

OTV 5 (USA 277) - Visible Passes

Search period start: 11 December 2017 00:00
Search period end: 21 December 2017 00:00
Orbit: 404 x 417 km, 43.0° (Epoch: 07 September)

Date Brightness Start Highest point End Pass type
(mag) Time Alt. Az. Time Alt. Az. Time Alt. Az.
12 Dec ? 19:06:24 10° NNW 19:07:02 13° NNW 19:07:02 13° NNW visible
13 Dec ? 18:15:43 10° NNW 18:17:51 16° NNE 18:18:47 14° NE visible
14 Dec ? 19:01:06 10° NW 19:03:33 39° NNW 19:03:33 39° NNW visible
15 Dec ? 18:10:13 10° NW 18:13:17 32° NNE 18:15:47 14° E visible
15 Dec ? 19:47:42 10° W 19:48:37 15° W 19:48:37 15° W visible
16 Dec ? 18:56:19 10° WNW 18:59:32 44° SW 19:01:14 23° SSE visible
17 Dec ? 18:05:08 10° NW 18:08:30 83° SW 18:11:52 10° SE visible
18 Dec ? 18:52:40 10° WSW 18:54:28 14° SW 18:56:17 10° SSW visible
19 Dec ? 18:00:45 10° W 18:03:32 24° SW 18:06:19 10° SSE visible
